• In Moldova, Republic
  • List of Countries
  • For 7 days
  • Water Temperature
  • Satellite Maps
  • Weather Map
  • Weather Widgets
  • user-avatar
    Login

    Hourly Weather Maun

    Today, 23 January, Wednesday

    Time Temperature Precipitation Wind Pressure Humidity
    00:00 +26°C° 0 mm 1 mps 680 mmHg 25%
    01:00 +26°C° 0 mm 2 mps 680 mmHg 26%
    02:00 +25°C° 0 mm 2 mps 680 mmHg 27%
    03:00 +24°C° 0 mm 2 mps 680 mmHg 29%
    04:00 +23°C° 0 mm 2 mps 680 mmHg 32%
    05:00 +21°C° 0 mm 2 mps 679 mmHg 34%
    06:00 +24°C° 0 mm 2 mps 680 mmHg 34%
    07:00 +25°C° 0 mm 2 mps 680 mmHg 35%
    08:00 +26°C° 0 mm 2 mps 681 mmHg 35%
    09:00 +29°C° 0 mm 2 mps 681 mmHg 31%
    10:00 +31°C° 0 mm 2 mps 682 mmHg 27%
    11:00 +35°C° 0 mm 2 mps 682 mmHg 24%
    12:00 +37°C° 0 mm 2 mps 682 mmHg 21%
    13:00 +37°C° 0 mm 1 mps 681 mmHg 18%
    14:00 +40°C° 0 mm 1 mps 681 mmHg 15%
    15:00 +40°C° 0 mm 1 mps 681 mmHg 15%
    16:00 +39°C° 0 mm 1 mps 680 mmHg 14%
    17:00 +39°C° 0 mm 1 mps 679 mmHg 14%
    18:00 +36°C° 0 mm 1 mps 679 mmHg 16%
    19:00 +33°C° 0 mm 1 mps 678 mmHg 18%
    20:00 +31°C° 0 mm 1 mps 678 mmHg 20%
    21:00 +30°C° 0 mm 1 mps 678 mmHg 21%
    22:00 +28°C° 0 mm 1 mps 678 mmHg 22%
    23:00 +27°C° 0 mm 1 mps 679 mmHg 23%

    Tomorrow, 24 January, Thursday

    Time Temperature Precipitation Wind Pressure Humidity
    00:00 +27°C° 0 mm 1 mps 678 mmHg 24%
    01:00 +26°C° 0 mm 1 mps 678 mmHg 25%
    02:00 +26°C° 0 mm 1 mps 678 mmHg 25%
    03:00 +26°C° 0 mm 1 mps 678 mmHg 26%
    04:00 +25°C° 0 mm 1 mps 678 mmHg 27%
    05:00 +24°C° 0 mm 1 mps 677 mmHg 28%
    06:00 +26°C° 0 mm 1 mps 678 mmHg 28%
    07:00 +27°C° 0 mm 1 mps 679 mmHg 27%
    08:00 +29°C° 0 mm 1 mps 680 mmHg 26%
    09:00 +32°C° 0 mm 2 mps 680 mmHg 22%
    10:00 +36°C° 0 mm 2 mps 681 mmHg 19%
    11:00 +39°C° 0 mm 2 mps 681 mmHg 15%
    12:00 +40°C° 0 mm 2 mps 681 mmHg 14%
    13:00 +42°C° 0 mm 3 mps 680 mmHg 12%
    14:00 +43°C° 0 mm 3 mps 680 mmHg 11%
    15:00 +41°C° 0 mm 2 mps 679 mmHg 12%
    16:00 +40°C° 0 mm 2 mps 678 mmHg 13%
    17:00 +39°C° 0 mm 2 mps 678 mmHg 14%
    18:00 +38°C° 0 mm 2 mps 678 mmHg 15%
    19:00 +36°C° 0 mm 2 mps 678 mmHg 17%
    20:00 +35°C° 0 mm 2 mps 678 mmHg 19%
    21:00 +34°C° 0 mm 2 mps 678 mmHg 21%
    22:00 +32°C° 0 mm 2 mps 679 mmHg 23%
    23:00 +31°C° 0 mm 2 mps 679 mmHg 25%

    Day after tomorrow, 25 January, Friday

    Time Temperature Precipitation Wind Pressure Humidity
    00:00 +30°C° 0 mm 3 mps 679 mmHg 26%
    01:00 +30°C° 0 mm 3 mps 679 mmHg 27%
    02:00 +29°C° 0 mm 4 mps 679 mmHg 28%
    03:00 +29°C° 0 mm 4 mps 679 mmHg 31%
    04:00 +28°C° 0 mm 4 mps 679 mmHg 34%
    05:00 +27°C° 0 mm 4 mps 679 mmHg 38%
    06:00 +28°C° 0 mm 3 mps 679 mmHg 38%
    07:00 +29°C° 0 mm 2 mps 680 mmHg 39%
    08:00 +30°C° 0 mm 1 mps 681 mmHg 39%
    09:00 +32°C° 0 mm 2 mps 681 mmHg 35%
    10:00 +35°C° 0 mm 2 mps 682 mmHg 32%
    11:00 +37°C° 0 mm 2 mps 682 mmHg 28%
    12:00 +39°C° 0 mm 2 mps 682 mmHg 25%
    13:00 +40°C° 0 mm 2 mps 681 mmHg 21%
    14:00 +42°C° 0 mm 2 mps 681 mmHg 18%
    15:00 +41°C° 0 mm 1 mps 680 mmHg 19%
    16:00 +40°C° 0 mm 1 mps 679 mmHg 20%
    17:00 +39°C° 0 mm 1 mps 679 mmHg 21%
    18:00 +37°C° 0 mm 2 mps 679 mmHg 23%
    19:00 +36°C° 0 mm 2 mps 679 mmHg 26%
    20:00 +34°C° 0 mm 2 mps 679 mmHg 28%
    21:00 +32°C° 0 mm 2 mps 679 mmHg 29%
    22:00 +32°C° 0 mm 2 mps 680 mmHg 30%
    23:00 +31°C° 0 mm 2 mps 680 mmHg 31%

    26 January, Saturday

    Time Temperature Precipitation Wind Pressure Humidity
    00:00 +30°C° 0.1 mm 2 mps 680 mmHg 37%
    01:00 +28°C° 0.1 mm 2 mps 679 mmHg 42%
    02:00 +27°C° 0.1 mm 1 mps 679 mmHg 48%
    03:00 +27°C° 0 mm 1 mps 679 mmHg 49%
    04:00 +26°C° 0 mm 2 mps 679 mmHg 50%
    05:00 +26°C° 0 mm 2 mps 679 mmHg 52%
    06:00 +27°C° 0 mm 2 mps 680 mmHg 50%
    07:00 +28°C° 0 mm 2 mps 681 mmHg 47%
    08:00 +30°C° 0 mm 2 mps 682 mmHg 45%
    09:00 +32°C° 0 mm 2 mps 682 mmHg 39%
    10:00 +35°C° 0 mm 1 mps 682 mmHg 33%
    11:00 +39°C° 0 mm 1 mps 683 mmHg 27%
    12:00 +41°C° 0 mm 1 mps 682 mmHg 24%
    13:00 +42°C° 0 mm 1 mps 682 mmHg 21%
    14:00 +41°C° 0 mm 0 mps 682 mmHg 18%
    15:00 +43°C° 0 mm 1 mps 681 mmHg 18%
    16:00 +41°C° 0 mm 1 mps 680 mmHg 19%
    17:00 +40°C° 0 mm 1 mps 679 mmHg 20%
    18:00 +37°C° 0.1 mm 1 mps 679 mmHg 23%
    19:00 +35°C° 0.1 mm 1 mps 679 mmHg 27%
    20:00 +33°C° 0.1 mm 1 mps 679 mmHg 30%
    21:00 +32°C° 0.2 mm 1 mps 679 mmHg 33%
    22:00 +31°C° 0.2 mm 1 mps 679 mmHg 36%
    23:00 +30°C° 0.2 mm 1 mps 679 mmHg 38%

    27 January, Sunday

    Time Temperature Precipitation Wind Pressure Humidity
    00:00 +29°C° 0 mm 1 mps 679 mmHg 41%
    01:00 +29°C° 0 mm 1 mps 679 mmHg 43%
    02:00 +28°C° 0 mm 1 mps 679 mmHg 46%
    03:00 +26°C° 1.2 mm 1 mps 679 mmHg 55%
    04:00 +25°C° 1.2 mm 1 mps 679 mmHg 65%
    05:00 +24°C° 1.2 mm 1 mps 679 mmHg 74%
    06:00 +25°C° 0 mm 2 mps 680 mmHg 69%
    07:00 +26°C° 0 mm 2 mps 680 mmHg 65%
    08:00 +28°C° 0 mm 2 mps 681 mmHg 60%
    09:00 +30°C° 0 mm 2 mps 681 mmHg 50%
    10:00 +34°C° 0 mm 3 mps 682 mmHg 41%
    11:00 +37°C° 0 mm 3 mps 682 mmHg 31%
    12:00 +38°C° 0 mm 3 mps 682 mmHg 28%
    13:00 +39°C° 0 mm 3 mps 681 mmHg 25%
    14:00 +40°C° 0 mm 2 mps 680 mmHg 22%
    15:00 +40°C° 0 mm 2 mps 680 mmHg 23%
    16:00 +39°C° 0 mm 2 mps 679 mmHg 23%
    17:00 +39°C° 0 mm 1 mps 679 mmHg 24%
    18:00 +36°C° 0 mm 1 mps 679 mmHg 28%
    19:00 +34°C° 0 mm 1 mps 678 mmHg 31%
    20:00 +32°C° 0 mm 2 mps 678 mmHg 34%
    21:00 +31°C° 0.1 mm 2 mps 678 mmHg 39%
    22:00 +30°C° 0.1 mm 2 mps 679 mmHg 43%
    23:00 +28°C° 0.1 mm 2 mps 679 mmHg 48%

    28 January, Monday

    Time Temperature Precipitation Wind Pressure Humidity
    00:00 +28°C° 0.4 mm 2 mps 679 mmHg 52%
    01:00 +27°C° 0.4 mm 2 mps 679 mmHg 56%
    02:00 +26°C° 0.4 mm 1 mps 678 mmHg 60%
    03:00 +25°C° 1.1 mm 2 mps 679 mmHg 66%
    04:00 +25°C° 1.1 mm 2 mps 679 mmHg 71%
    05:00 +24°C° 1.1 mm 2 mps 679 mmHg 77%
    06:00 +24°C° 1 mm 3 mps 680 mmHg 76%
    07:00 +23°C° 1 mm 4 mps 681 mmHg 76%
    08:00 +25°C° 1 mm 4 mps 682 mmHg 76%
    09:00 +26°C° 0.3 mm 5 mps 683 mmHg 68%
    10:00 +27°C° 0.3 mm 5 mps 683 mmHg 60%
    11:00 +29°C° 0.3 mm 6 mps 683 mmHg 52%
    12:00 +30°C° 0 mm 5 mps 683 mmHg 46%
    13:00 +33°C° 0 mm 4 mps 682 mmHg 39%
    14:00 +35°C° 0 mm 2 mps 681 mmHg 32%
    15:00 +35°C° 0 mm 3 mps 681 mmHg 30%
    16:00 +35°C° 0 mm 3 mps 680 mmHg 29%
    17:00 +35°C° 0 mm 3 mps 679 mmHg 28%
    18:00 +32°C° 0 mm 2 mps 679 mmHg 33%
    19:00 +30°C° 0 mm 2 mps 679 mmHg 39%
    20:00 +28°C° 0 mm 2 mps 679 mmHg 45%
    21:00 +28°C° 0 mm 2 mps 679 mmHg 46%
    22:00 +27°C° 0 mm 2 mps 680 mmHg 46%
    23:00 +27°C° 0 mm 2 mps 680 mmHg 46%
    Show more